Wind_Speed
16 17 16 15 16 16 16 17 17 17 17 19 19 21 22 23 23 24 23 22 22 23 23 22 21 21 20 20 21 21 20 19 19 20 19 19 19 18 19 18 18 17 17 17
17 16 15 16 16 17 18 19 19 18 19 20 21 22 24 25 25 26 24 23 22 24 23 22 22 22 22 21 21 21 21 20 20 20 20 20 20 20 19 19 18 17 17 17
18 16 17 18 18 19 20 20 19 20 22 23 23 24 24 24 25 26 24 23 22 23 23 23 23 23 23 22 23 23 22 22 22 22 21 21 20 20 20 19 18 17 17 18
18 18 19 20 20 20 21 20 21 22 22 23 22 24 25 24 26 25 24 24 23 22 23 23 23 23 24 24 23 23 24 23 23 22 22 21 21 21 20 19 18 18 18 18
18 20 21 21 20 21 21 21 22 21 21 22 21 24 26 24 24 24 23 22 22 22 22 22 22 23 24 24 24 24 23 23 22 22 22 22 21 20 20 20 19 19 19 19
20 20 21 21 22 22 22 21 21 20 20 23 21 24 25 25 25 24 23 21 21 22 22 22 21 22 23 23 24 23 23 22 22 22 22 22 21 20 20 19 19 19 19 19
19 20 21 22 22 22 21 20 20 19 20 22 20 22 25 25 25 25 24 23 22 22 22 21 21 22 22 22 22 22 22 22 22 22 22 22 21 20 20 19 18 18 19 19
18 19 20 21 22 21 20 20 20 20 20 19 20 23 24 24 25 26 25 23 23 23 23 22 22 22 22 21 21 21 22 22 22 23 22 22 22 21 20 20 19 19 19 19
19 19 20 22 22 22 21 21 21 22 20 21 22 24 26 26 26 24 24 23 23 23 22 21 22 22 22 22 22 22 22 23 23 23 22 22 22 21 20 20 19 19 19 19
23 23 22 23 23 22 20 20 20 22 23 23 22 23 27 27 25 23 22 21 22 23 23 22 23 23 23 23 22 22 22 23 23 23 23 23 22 21 20 20 20 20 20 20
24 25 23 22 22 21 20 21 23 24 23 23 23 24 24 24 25 23 21 21 21 22 22 23 23 23 23 23 23 23 23 23 23 23 23 23 23 21 21 21 20 20 20 20
25 27 26 24 23 23 22 21 22 23 23 23 23 25 25 24 24 23 22 22 23 23 23 23 23 23 23 23 23 22 22 23 23 23 22 22 22 21 21 21 21 20 20 20
26 26 26 25 24 23 24 23 23 23 24 23 22 24 23 24 24 23 23 24 24 25 25 25 24 23 23 23 23 22 22 23 22 22 21 21 21 22 22 21 21 21 21 20
27 27 27 26 24 23 25 25 24 24 25 24 23 23 23 24 25 25 25 26 26 26 25 25 24 23 22 22 22 21 21 21 21 21 21 21 21 21 21 22 22 22 22 22
27 26 26 26 25 25 26 26 25 25 26 26 25 26 26 26 26 26 26 26 26 26 26 24 23 22 22 21 20 20 21 20 20 21 21 21 21 20 21 22 21 21 20 20
25 25 25 26 26 27 28 27 28 26 25 26 27 28 28 27 27 28 27 26 26 26 26 26 24 23 22 22 21 21 21 21 20 21 21 21 21 21 21 22 21 21 21 21
25 25 25 25 25 27 29 28 28 28 27 27 28 29 30 30 29 29 28 27 26 26 26 25 24 23 23 23 22 21 21 21 21 21 21 22 21 21 22 21 21 22 22 22
25 25 25 24 25 27 26 26 26 27 27 28 30 30 30 30 30 30 29 26 25 25 26 25 25 24 24 23 23 22 21 22 21 22 22 22 21 21 20 21 21 21 22 22
24 24 23 24 24 25 26 25 24 24 26 27 29 29 28 28 28 29 27 26 25 25 25 24 24 24 23 23 24 23 22 22 22 22 22 22 21 21 21 21 21 21 21 22
23 23 23 23 23 23 23 24 25 25 27 28 28 27 27 27 28 28 27 26 26 26 24 24 24 24 24 24 23 23 23 22 22 22 21 21 21 22 22 22 22 22 22 22
22 23 23 23 23 22 23 22 23 25 27 27 28 27 26 27 27 27 27 26 26 25 24 24 24 24 23 23 23 24 23 22 22 22 22 21 21 21 22 22 22 22 22 22
20 20 22 23 23 22 22 23 25 26 26 27 28 28 28 28 28 28 27 27 26 26 25 25 24 24 23 23 22 22 22 21 21 21 21 21 21 22 22 22 22 22 22 22
20 20 21 22 22 22 22 24 25 26 26 26 27 27 27 27 27 27 26 26 25 25 25 24 24 23 23 22 21 21 21 22 21 21 21 21 22 22 22 22 23 23 23 22
20 21 21 20 21 23 22 24 25 25 24 24 25 26 26 26 26 26 25 25 24 24 24 24 23 22 22 22 22 22 22 22 22 23 22 23 23 23 23 23 23 24 23 23
19 19 20 21 22 22 22 22 23 23 24 23 23 24 25 25 25 25 25 25 24 24 23 23 23 23 23 23 23 23 23 23 24 24 24 24 25 25 24 24 24 24 24 25
19 21 22 22 21 21 21 20 21 22 21 21 21 22 22 23 23 23 23 23 22 22 22 22 22 22 22 22 23 24 25 25 25 25 25 25 24 24 24 25 25 25 25 26
Wind_Direction
244 246 248 250 251 249 250 254 254 255 262 267 269 269 269 271 272 273 273 276 280 279 279 280 279 280 282 283 285 286 287 288 290 293 294 292 289 288 288 287 285 281 275 274
247 248 252 252 249 250 250 253 254 257 257 261 267 269 269 271 273 273 271 273 276 275 275 278 280 280 280 280 281 283 285 287 289 291 292 291 289 288 288 285 282 281 275 272
247 250 252 254 251 250 250 252 253 255 259 263 263 267 269 271 275 271 271 271 272 273 274 277 280 281 278 277 277 279 282 285 287 287 290 291 289 289 287 285 280 277 274 270
243 245 249 253 251 251 254 251 253 256 260 264 266 270 273 274 275 274 271 269 270 271 274 276 277 278 277 276 276 277 279 282 284 286 289 290 289 288 285 283 280 275 273 270
245 248 250 250 252 254 255 254 255 257 260 262 262 266 269 273 275 274 275 273 271 269 272 272 275 278 278 277 277 277 277 278 281 285 287 288 287 286 284 284 281 277 274 271
245 247 252 254 255 255 256 256 257 258 259 263 262 263 268 270 271 274 275 274 271 272 272 273 275 278 278 277 277 278 278 277 280 283 284 285 284 285 285 284 282 277 275 272
255 254 253 254 255 256 256 256 257 260 260 266 265 261 264 266 268 271 275 277 276 274 275 277 278 278 277 277 278 279 279 277 279 281 281 282 282 282 283 282 281 278 276 272
254 258 257 256 258 258 254 253 254 257 261 271 273 266 265 270 265 268 270 273 276 274 276 277 279 277 276 276 277 278 278 276 276 279 280 279 280 278 279 279 279 277 277 274
243 250 254 257 259 255 251 249 253 257 257 261 267 268 269 266 265 271 272 273 273 275 277 280 279 278 276 275 276 277 278 277 276 276 277 277 278 276 275 275 278 278 278 277
241 240 244 254 258 257 253 253 252 251 256 258 262 267 266 271 274 273 271 270 274 278 281 281 280 279 278 279 280 278 278 278 277 276 274 274 275 274 275 276 277 276 278 278
245 245 244 250 256 258 253 249 248 251 252 256 261 266 267 273 272 272 276 276 275 279 281 280 279 279 278 277 279 279 278 277 276 276 274 272 271 273 276 276 276 276 276 275
247 247 246 245 249 253 251 248 249 251 251 252 258 267 271 275 274 275 277 277 278 279 280 278 279 279 278 277 277 278 277 276 276 274 272 270 271 273 274 275 274 273 273 270
254 251 251 248 247 247 249 247 245 248 252 252 254 264 271 273 276 275 275 275 276 279 279 278 278 279 277 277 275 277 275 275 275 274 273 272 272 272 273 274 274 271 269 268
258 256 254 251 244 246 248 247 245 247 248 251 252 262 266 269 272 273 274 276 277 279 279 278 277 279 279 276 274 275 275 275 274 273 272 272 273 273 273 274 273 271 269 268
260 259 257 255 250 247 251 249 248 248 246 248 253 258 262 266 270 272 274 276 278 278 279 279 278 277 278 277 276 275 275 275 274 273 273 272 274 275 273 273 270 269 270 269
263 264 263 257 252 250 252 250 250 250 250 251 255 257 259 263 269 272 272 273 275 276 277 279 278 277 278 278 278 277 276 275 274 273 274 274 273 273 272 271 270 270 269 267
263 264 262 259 256 253 252 251 250 250 250 253 257 258 260 262 264 267 271 272 274 275 275 276 275 276 277 276 276 278 279 278 277 275 274 274 273 273 272 271 269 270 269 269
266 264 263 260 257 256 255 252 252 252 251 253 258 261 262 263 264 266 271 272 275 276 275 273 271 273 274 274 275 277 278 279 277 276 276 273 271 271 271 271 271 269 268 269
267 265 262 258 256 259 256 251 253 251 252 255 259 261 262 264 263 265 268 272 274 276 275 272 271 271 272 273 275 275 276 276 274 274 274 270 268 268 269 270 272 271 269 266
269 266 263 260 257 259 259 253 253 253 255 256 258 259 259 260 262 265 267 269 271 272 273 272 271 270 271 272 273 274 275 274 273 272 272 270 268 266 266 268 268 269 269 268
266 267 263 260 259 260 261 257 257 258 258 258 259 259 260 261 262 265 266 268 268 268 269 272 271 270 270 272 274 275 275 274 272 272 271 270 269 267 267 267 268 268 268 268
262 266 264 261 258 258 260 259 258 261 264 264 263 263 263 263 264 264 266 267 267 267 267 269 271 270 270 272 273 272 272 272 272 272 271 270 269 269 268 268 269 268 269 267
262 265 264 262 260 260 258 260 259 260 263 264 264 264 264 264 263 263 264 264 265 266 267 267 268 269 270 270 269 270 270 272 272 272 272 271 270 269 268 269 269 269 269 269
261 265 266 266 264 263 262 262 263 264 265 267 267 265 264 263 262 262 262 262 264 266 267 266 266 269 270 270 269 269 269 270 273 273 273 273 273 270 270 269 269 269 270 271
260 265 268 267 265 265 267 266 267 268 267 267 268 267 265 263 263 263 262 261 263 265 268 266 266 268 268 270 269 269 270 272 273 273 275 275 274 271 269 270 271 272 271 272
261 263 266 268 268 266 268 270 269 269 269 269 269 270 268 265 264 262 260 260 262 267 269 269 269 271 270 271 272 271 270 272 271 272 276 275 275 273 272 272 272 273 273 273
Height
5852 5854 5855 5857 5859 5861 5862 5863 5864 5865 5866 5865 5865 5864 5864 5863 5863 5862 5861 5861 5861 5860 5860 5859 5859 5859 5859 5859 5858 5857 5856 5855 5854 5853 5852 5851 5850 5849 5849 5848 5848 5847 5847 5847
5849 5851 5853 5854 5855 5857 5859 5860 5861 5862 5862 5861 5861 5860 5859 5858 5858 5857 5856 5857 5856 5856 5855 5855 5854 5854 5854 5854 5853 5853 5852 5851 5850 5849 5848 5847 5846 5845 5844 5844 5844 5844 5843 5844
5845 5849 5849 5850 5852 5853 5854 5855 5856 5857 5856 5856 5856 5855 5854 5854 5853 5851 5851 5851 5851 5851 5850 5850 5849 5849 5849 5849 5849 5848 5847 5847 5846 5845 5843 5842 5842 5841 5841 5841 5840 5840 5840 5840
5842 5844 5845 5847 5847 5848 5849 5851 5851 5852 5851 5851 5852 5850 5848 5847 5847 5846 5846 5846 5846 5845 5845 5845 5844 5844 5844 5844 5844 5843 5843 5842 5841 5840 5839 5838 5837 5837 5836 5836 5835 5835 5835 5836
5837 5839 5840 5841 5843 5844 5844 5845 5846 5846 5846 5846 5846 5845 5844 5842 5841 5841 5841 5841 5840 5839 5839 5839 5839 5839 5839 5838 5838 5838 5837 5837 5836 5835 5834 5833 5833 5832 5831 5831 5831 5831 5831 5831
5833 5835 5836 5836 5837 5838 5839 5839 5840 5840 5841 5840 5841 5840 5839 5838 5837 5836 5836 5835 5834 5835 5834 5833 5833 5834 5834 5833 5833 5833 5832 5832 5832 5831 5830 5829 5828 5827 5827 5826 5826 5826 5826 5827
5828 5829 5830 5831 5831 5832 5833 5834 5835 5835 5835 5835 5836 5834 5833 5832 5832 5831 5829 5829 5829 5829 5829 5829 5828 5829 5829 5829 5828 5828 5827 5827 5826 5826 5825 5824 5823 5823 5822 5822 5822 5822 5822 5822
5823 5825 5825 5825 5826 5827 5828 5829 5831 5831 5832 5832 5831 5829 5828 5826 5826 5825 5824 5824 5825 5824 5824 5824 5824 5823 5823 5823 5823 5822 5822 5822 5821 5820 5820 5819 5818 5818 5818 5817 5817 5817 5817 5818
5818 5820 5821 5820 5820 5821 5822 5823 5826 5826 5826 5826 5827 5825 5823 5821 5821 5821 5820 5820 5820 5819 5818 5819 5819 5818 5818 5818 5818 5817 5817 5816 5816 5815 5815 5814 5813 5813 5813 5813 5813 5813 5813 5813
5811 5812 5814 5814 5815 5815 5817 5818 5820 5820 5820 5820 5822 5820 5818 5817 5816 5815 5815 5816 5816 5815 5814 5815 5814 5814 5813 5812 5812 5812 5811 5810 5810 5809 5809 5809 5809 5808 5808 5808 5808 5808 5809 5809
5805 5806 5808 5809 5809 5810 5812 5813 5813 5814 5815 5815 5815 5817 5812 5811 5810 5809 5809 5810 5811 5810 5809 5809 5809 5808 5807 5807 5806 5806 5805 5805 5804 5804 5803 5803 5803 5803 5803 5803 5803 5803 5803 5803
5797 5798 5800 5802 5804 5804 5805 5806 5807 5808 5808 5809 5810 5811 5806 5806 5805 5804 5805 5805 5805 5804 5804 5803 5803 5802 5801 5801 5800 5799 5799 5799 5798 5798 5798 5798 5798 5798 5798 5798 5798 5798 5798 5798
5790 5792 5793 5795 5799 5798 5798 5799 5800 5802 5802 5803 5804 5806 5802 5800 5800 5799 5800 5800 5800 5799 5799 5798 5798 5796 5795 5795 5794 5793 5793 5793 5793 5792 5792 5792 5792 5792 5792 5792 5793 5793 5793 5793
5784 5785 5786 5788 5789 5791 5791 5792 5793 5795 5796 5797 5798 5798 5797 5796 5795 5794 5794 5794 5794 5794 5793 5793 5792 5791 5790 5789 5788 5788 5788 5787 5787 5787 5787 5787 5787 5787 5787 5787 5787 5787 5787 5788
5777 5778 5778 5780 5782 5783 5783 5785 5786 5788 5789 5790 5791 5791 5791 5790 5789 5788 5788 5788 5788 5788 5787 5787 5786 5785 5785 5784 5783 5782 5782 5782 5781 5781 5781 5781 5781 5781 5781 5781 5781 5782 5782 5782
5770 5771 5772 5773 5775 5776 5776 5778 5779 5781 5782 5783 5784 5785 5784 5783 5783 5782 5782 5781 5781 5782 5781 5781 5780 5780 5779 5779 5778 5777 5777 5776 5776 5776 5775 5775 5775 5775 5775 5776 5776 5776 5776 5776
5764 5764 5765 5766 5768 5768 5769 5771 5772 5774 5775 5776 5776 5778 5777 5777 5776 5775 5775 5775 5775 5775 5775 5775 5774 5774 5774 5773 5773 5772 5771 5771 5770 5770 5770 5770 5769 5770 5770 5770 5770 5770 5770 5771
5757 5758 5758 5759 5760 5760 5765 5764 5765 5766 5767 5768 5768 5769 5769 5769 5769 5769 5768 5768 5769 5768 5768 5768 5768 5768 5768 5767 5767 5766 5766 5765 5765 5764 5764 5764 5764 5763 5763 5764 5764 5764 5764 5765
5750 5751 5751 5752 5752 5753 5755 5756 5757 5758 5759 5760 5760 5761 5761 5761 5762 5762 5762 5762 5762 5761 5761 5761 5761 5761 5761 5761 5761 5760 5760 5759 5759 5758 5758 5758 5758 5758 5758 5758 5758 5758 5759 5759
5744 5744 5746 5746 5746 5747 5749 5749 5749 5752 5751 5752 5751 5753 5754 5754 5755 5755 5755 5755 5755 5755 5755 5755 5755 5755 5755 5754 5754 5754 5754 5753 5753 5752 5752 5751 5752 5752 5752 5752 5752 5752 5752 5753
5738 5738 5739 5739 5739 5740 5741 5741 5743 5745 5745 5745 5744 5744 5745 5747 5748 5748 5748 5749 5748 5748 5748 5748 5748 5748 5748 5748 5748 5747 5747 5747 5746 5746 5746 5745 5745 5745 5746 5746 5746 5746 5746 5746
5732 5732 5733 5733 5734 5736 5734 5736 5737 5737 5737 5737 5737 5738 5738 5739 5740 5740 5741 5741 5741 5742 5742 5742 5742 5741 5741 5741 5741 5740 5740 5740 5740 5740 5739 5739 5739 5739 5739 5739 5739 5739 5740 5740
5727 5728 5727 5727 5728 5728 5727 5728 5729 5729 5730 5730 5730 5731 5731 5732 5732 5732 5733 5734 5734 5735 5735 5735 5735 5735 5735 5734 5734 5734 5734 5734 5734 5733 5733 5733 5733 5733 5733 5733 5733 5733 5733 5733
5722 5721 5720 5720 5720 5721 5721 5721 5722 5722 5722 5723 5723 5723 5723 5724 5724 5725 5726 5726 5727 5728 5728 5728 5728 5728 5728 5727 5727 5727 5727 5726 5727 5727 5726 5726 5726 5726 5726 5725 5725 5726 5726 5726
5716 5716 5715 5714 5714 5714 5714 5714 5715 5715 5715 5716 5716 5716 5716 5717 5717 5718 5719 5720 5720 5721 5721 5721 5721 5721 5721 5720 5720 5720 5720 5720 5720 5720 5719 5719 5718 5718 5718 5718 5718 5718 5718 5718
5711 5710 5709 5709 5708 5708 5709 5709 5709 5709 5709 5709 5709 5709 5709 5710 5711 5712 5712 5713 5714 5714 5714 5714 5714 5714 5714 5713 5713 5713 5713 5713 5712 5712 5711 5711 5711 5710 5710 5710 5710 5710 5711 5710